SCP
-0 -0 -0 -0 -0 -0 0 0 0 0 0 0 0 0 0 0 0 0 -0 0 0 0 0 0 0 0 0 0 0 0 0 0 0 0 0 0 0 0 0 0 0 0 0 0
-0 -0 -0 -0 -0 -0 0 0 0 0 0 0 0 0 0 0 0 0 0 0 0 0 0 0 0 0 0 0 0 0 0 0 0 0 0 0 0 0 0 0 0 0 0 0
-0 -0 -0 -0 -0 -0 -0 0 0 0 0 0 0 0 0 0 0 0 0 0 0 0 0 0 0 0 0 0 0 0 0 0 0 0 0 0 0 0 0 0 0 0 0 0
-0 -0 -0 -0 -0 -0 -0 0 0 0 0 0 0 0 0 0 0 0 0 0 0 0 0 0 0 0 0 0 0 0 0 0 0 0 0 -0 -0 -0 0 0 0 0 0 0
-0 -0 -0 -0 -0 -0 0 0 0 0 0 0 0 0 0 0 0 0 0 0 0 0 0 0 0 0 0 0 0 0 0 0 0 0 0 0 0 0 -0 -0 0 0 0 0
0 0 -0 -0 -0 0 0 0 0 0 0 0 0 0 0 0 0 0 0 0 0 0 0 0 0 0 0 0 0 0 0 0 0 0 0 0 0 0 0 0 0 0 0 0
0 0 0 0 0 0 0 0 0 0 0 0 0 0 0 0 0 0 0 0 0 0 0 0 0 0 0 0 0 0 0 0 0 0 0 0 0 0 0 0 0 0 0 0
0 0 0 0 0 0 0 0 0 0 0 0 0 0 0 0 0 0 0 0 0 0 0 0 0 0 0 0 0 0 0 0 0 0 0 0 0 0 0 0 0 0 0 0
0 0 0 0 0 0 0 0 0 0 0 0 0 0 0 0 0 0 0 0 0 0 0 0 0 0 0 0 0 0 0 0 0 0 0 0 0 0 0 0 0 0 0 0
0 0 0 0 0 0 0 0 0 0 0 0 0 0 0 0 0 0 0 0 0 0 0 0 0 0 0 0 0 0 0 0 0 0 0 0 0 0 0 0 0 0 0 0
0 0 0 0 0 0 0 0 0 0 0 0 0 0 0 0 0 0 0 0 0 0 0 0 0 0 0 0 0 0 0 0 0 0 0 0 0 0 0 0 0 0 0 0
0 0 0 0 0 0 0 0 0 0 0 0 0 0 0 0 0 0 0 0 0 0 0 0 0 0 0 0 0 0 0 0 0 0 0 0 0 0 0 0 0 0 0 0
0 0 0 0 0 0 0 0 0 0 0 0 0 0 0 0 0 0 0 0 0 0 0 0 0 0 0 0 0 0 0 0 0 0 0 0 0 0 0 0 0 0 0 0
0 0 0 0 0 0 0 0 0 0 0 0 0 0 0 0 0 0 0 0 0 0 0 0 0 0 0 0 0 0 0 0 0 0 0 0 0 0 0 0 0 0 0 0
0 0 0 0 0 0 0 0 0 0 0 0 0 -0 -0 0 0 0 0 0 0 0 0 0 0 0 0 0 0 0 0 0 0 0 0 0 0 0 0 0 0 0 0 0
0 0 0 0 0 0 0 0 0 0 0 0 0 0 0 0 0 0 0 0 0 0 0 0 0 0 0 0 0 0 0 0 0 0 0 0 0 0 0 0 0 0 0 0
0 0 0 0 0 0 0 0 0 0 0 0 -0 -0 0 0 0 0 0 0 0 0 0 0 0 0 0 0 0 0 0 0 0 0 0 0 0 0 0 0 0 0 0 0
0 0 0 0 0 0 0 0 0 0 0 0 0 0 0 0 -0 0 -0 0 0 0 0 0 0 0 0 0 0 0 0 0 0 0 0 0 0 0 0 0 0 0 0 0
0 0 0 0 0 0 0 0 0 0 0 0 0 0 0 0 0 0 0 0 0 0 0 0 0 0 0 0 0 0 0 0 0 0 0 0 0 0 0 0 0 0 0 0
0 0 0 0 0 0 0 0 0 0 0 0 0 0 0 0 0 0 0 0 0 0 0 0 0 0 0 0 0 0 0 0 0 0 0 0 0 0 0 0 0 0 0 0
0 0 0 0 0 0 0 0 0 0 0 0 0 0 0 0 0 0 0 0 0 0 0 0 0 0 0 0 0 0 0 0 0 0 0 0 0 0 0 0 0 0 0 0
0 0 0 0 0 0 0 0 0 0 0 0 0 0 0 -0 0 0 0 0 0 0 0 0 0 0 0 0 0 0 0 0 0 0 0 0 0 0 0 0 0 0 0 0
0 0 0 0 0 0 0 0 0 0 0 0 0 0 0 0 0 0 0 0 0 0 0 0 0 0 0 0 0 0 0 0 0 0 0 0 0 0 0 0 0 0 0 0
0 0 0 0 0 0 0 0 0 0 0 0 -0 -0 0 0 0 0 0 0 0 0 0 0 0 0 0 0 0 0 0 0 0 0 0 0 0 0 0 0 0 0 0 0
0 0 0 0 0 0 0 0 0 0 0 -0 -0 0 0 0 0 0 -0 0 0 0 0 0 0 0 0 0 0 0 0 0 0 0 0 0 0 0 0 0 0 0 0 0
0 0 0 0 0 0 0 0 0 -0 -0 -0 -0 0 0 0 0 0 0 -0 0 0 0 0 0 0 0 0 0 0 0 0 0 0 0 0 0 0 0 0 0 0 0 0
0 0 0 0 0 0 0 -0 -0 -0 0 0 -0 0 0 0 -0 0 0 0 0 0 0 0 0 -0 0 0 -0 0 0 0 0 0 0 0 0 0 0 0 0 0 0 0
Wind_Speed_500mb
62 63 65 68 71 67 50 14 6 14 11 3 4 3 6 10 9 5 6 5 5 3 2 5 4 3 4 1 13 8 3 8 1 3 4 5 5 6 8 9 5 4 5 11
61 60 60 60 62 65 57 21 7 11 7 5 5 11 8 6 12 8 7 3 1 2 5 4 1 3 8 8 5 8 9 6 6 14 13 10 12 6 9 9 6 6 9 10
60 58 56 55 52 52 43 15 7 10 14 13 5 9 8 13 17 4 12 5 4 6 9 9 2 1 5 5 10 14 10 6 12 11 12 7 3 5 6 8 6 7 11 10
55 55 53 50 46 42 31 18 4 6 6 8 7 4 8 8 13 11 17 4 10 2 8 1 1 3 3 7 4 7 8 7 8 9 7 5 6 9 8 11 10 12 9 14
50 50 50 48 43 36 18 12 10 11 4 11 6 5 3 7 11 4 12 9 16 5 8 13 17 8 2 5 6 6 5 5 7 4 3 4 8 14 15 12 7 5 7 8
46 45 46 47 40 34 14 15 11 8 7 8 2 3 4 3 11 8 3 13 8 5 10 21 8 8 4 4 8 6 6 11 7 9 6 9 8 11 9 8 7 13 10 10
44 43 40 39 39 32 21 17 12 6 7 2 5 1 6 7 7 8 25 29 4 7 37 8 5 2 7 7 13 11 13 11 6 9 4 6 15 12 7 11 7 6 14 12
42 41 39 35 32 28 19 12 7 5 6 6 15 6 6 14 19 10 13 22 11 36 15 6 7 9 11 5 6 2 7 10 6 8 10 8 4 8 13 10 4 0 15 14
38 40 37 34 30 27 16 10 8 3 3 8 10 6 6 5 5 12 11 16 26 8 6 6 12 11 11 7 5 10 11 10 8 6 9 13 17 11 24 17 1 19 19 27
37 39 39 36 30 25 21 9 12 8 8 16 16 9 6 3 1 3 11 20 17 10 4 6 9 11 11 10 12 8 3 5 12 6 9 13 13 11 24 10 16 54 56 51
35 36 37 36 35 28 20 12 14 12 12 39 39 27 13 9 8 2 17 18 5 7 1 6 8 9 13 8 11 14 13 10 7 5 4 11 21 14 14 16 17 69 54 55
34 34 34 33 34 36 28 10 19 23 22 26 34 36 34 31 37 21 10 5 5 7 2 1 2 5 1 7 10 3 3 14 9 16 12 7 11 12 32 30 53 62 53 45
32 32 32 31 33 33 36 34 31 30 20 38 33 23 16 22 47 54 33 26 14 11 3 5 4 8 7 7 10 7 5 10 7 5 6 8 9 17 32 38 57 63 54 49
33 33 33 33 32 32 36 42 33 21 11 9 19 19 22 21 21 24 45 65 33 20 16 6 5 5 9 6 5 7 9 14 12 6 11 7 5 18 35 41 55 52 48 48
33 34 34 33 37 36 36 29 13 7 8 8 37 69 25 15 40 47 44 45 54 56 12 7 8 10 3 5 1 6 10 11 9 10 17 9 8 27 32 46 53 53 54 52
36 36 36 36 38 39 34 4 14 17 25 12 9 30 46 34 19 30 52 54 69 46 18 16 23 19 18 8 9 24 57 56 31 15 23 15 19 20 38 50 51 51 48 42
37 37 38 37 37 40 23 10 18 25 21 8 12 16 15 35 26 15 20 32 44 41 24 29 26 24 35 7 24 8 33 59 70 60 34 25 36 38 55 54 48 48 42 34
39 40 40 39 36 28 6 8 21 20 10 8 5 8 23 31 16 16 17 17 18 20 22 13 25 32 14 17 19 59 60 44 30 29 31 29 32 48 56 46 50 49 47 44
38 39 41 22 2 2 4 32 29 17 15 6 7 5 7 31 24 19 21 14 6 18 9 11 19 14 19 14 27 47 65 77 80 69 45 33 29 49 57 56 61 58 54 45
37 33 10 4 3 16 29 9 3 4 10 11 8 9 7 19 16 12 24 16 7 7 11 21 17 28 56 46 41 57 74 57 61 67 54 55 48 60 67 68 66 59 51 41
21 14 9 19 37 13 5 5 7 8 7 11 13 19 6 13 6 7 12 7 7 7 10 11 8 18 25 67 77 55 59 69 69 62 63 65 65 71 74 71 61 52 43 35
24 24 26 18 6 3 4 4 7 4 5 6 8 12 14 14 15 14 12 9 7 13 3 7 7 5 12 52 74 80 65 51 48 40 49 53 68 70 71 72 64 51 38 31
18 7 6 6 5 4 7 6 6 5 7 9 9 10 11 13 18 14 7 13 13 12 5 8 5 7 29 25 21 48 43 69 68 58 35 52 55 66 71 71 56 45 37 31
5 4 8 6 8 9 9 8 6 10 15 32 43 21 11 19 11 9 12 11 5 8 8 10 4 25 39 39 32 30 35 48 70 61 49 38 55 70 72 60 52 45 38 33
6 5 8 10 23 20 23 27 30 46 48 49 28 22 22 10 10 9 10 9 12 9 6 6 28 43 37 42 37 33 29 43 56 68 61 54 64 77 66 52 45 39 37 29
8 12 10 21 19 25 23 30 35 42 33 31 17 9 8 10 6 9 12 7 5 5 6 37 52 43 39 40 45 40 31 41 57 68 69 71 84 75 63 55 46 38 29 36
9 15 27 35 34 40 45 44 46 37 26 4 10 8 8 7 6 7 13 6 9 31 51 53 45 39 36 23 27 18 36 53 63 75 89 87 73 64 61 57 47 36 39 52
Wind_Direction_500mb
341 344 348 351 353 357 7 9 66 55 165 56 46 171 206 312 304 346 275 112 128 175 116 81 159 141 243 95 145 144 182 130 196 212 358 291 4 109 107 112 223 83 130 281
339 340 346 350 354 358 360 354 0 3 145 107 334 317 308 276 334 329 351 296 336 114 66 89 40 38 13 3 101 150 184 34 18 353 0 355 48 16 110 104 85 185 128 264
339 338 342 348 352 356 357 357 13 26 72 55 87 9 344 324 338 281 357 297 114 96 41 33 224 342 355 33 93 110 98 109 148 176 203 182 30 9 91 106 106 180 221 282
340 342 341 346 351 355 2 12 45 28 336 355 13 357 352 330 347 353 1 27 29 179 139 58 291 292 329 59 89 69 104 150 176 232 222 189 216 226 193 199 194 160 260 208
344 345 343 344 350 358 10 22 10 353 304 311 326 354 11 4 321 292 336 39 320 356 165 182 205 169 223 196 10 76 20 187 166 270 178 218 261 253 236 226 129 263 167 245
342 344 348 349 352 4 23 20 360 341 332 342 31 224 324 330 356 280 294 340 330 32 4 311 284 197 180 188 174 157 131 134 107 248 353 5 334 246 219 197 173 155 172 208
341 344 345 351 356 360 5 357 355 349 283 296 233 244 316 286 316 269 301 325 310 331 332 277 256 274 307 248 249 176 149 133 134 200 57 249 244 286 204 116 20 147 113 123
346 347 345 346 349 352 347 343 351 334 283 274 294 269 260 308 303 251 260 288 301 314 316 54 24 338 357 271 19 243 156 125 154 158 185 275 22 200 166 146 352 37 141 150
352 354 353 351 351 349 344 301 317 277 329 255 270 316 299 283 289 320 278 304 318 306 98 112 173 212 218 274 331 61 78 79 125 135 166 202 231 208 161 119 301 218 197 171
352 354 354 352 352 355 353 321 306 283 269 270 273 230 256 271 83 256 300 339 333 1 110 160 170 222 192 188 185 194 37 40 173 175 223 282 246 164 143 110 233 180 188 183
348 352 355 358 354 354 356 331 303 300 262 269 267 258 252 260 270 130 312 334 322 345 23 162 212 190 217 156 196 176 174 164 199 116 138 265 165 118 159 204 163 178 192 202
343 344 346 349 351 351 357 342 317 305 272 265 277 274 257 268 274 252 228 262 315 255 67 324 293 264 202 178 214 47 211 187 187 175 213 235 238 260 223 177 166 175 179 185
342 343 341 340 340 341 341 336 329 320 295 294 277 282 278 271 252 253 245 260 254 241 261 211 236 258 137 190 237 188 238 166 160 81 265 257 286 228 188 178 176 176 181 177
341 342 341 339 335 333 332 328 324 305 278 288 280 272 274 273 262 249 242 244 241 236 285 280 223 214 196 231 235 184 203 143 157 249 273 277 215 182 172 172 167 171 179 181
332 334 337 335 330 332 336 329 352 341 257 291 301 300 308 298 266 248 238 242 243 246 228 193 221 233 231 231 111 249 190 181 153 214 214 160 209 194 189 179 178 178 173 177
329 327 325 325 323 325 342 313 60 28 359 337 307 305 295 320 332 268 251 239 240 226 209 205 225 230 207 211 228 229 238 251 259 225 190 262 278 255 207 190 178 177 181 183
322 320 319 317 309 310 312 283 305 317 303 269 293 286 306 341 336 333 293 244 231 226 227 230 243 214 217 209 238 260 225 231 239 240 250 252 245 220 201 191 182 180 181 188
316 316 317 310 306 302 321 131 327 321 292 232 268 280 313 351 349 329 316 279 229 232 230 213 208 223 223 249 217 227 234 249 238 227 223 232 239 213 192 189 183 183 184 180
316 320 317 316 26 10 192 313 299 263 234 260 230 286 301 345 352 326 310 297 296 248 204 210 192 200 218 208 189 216 225 223 237 242 238 249 230 198 190 191 187 188 182 184
327 327 328 292 332 310 311 293 285 218 200 227 231 277 286 331 346 309 335 288 240 270 239 224 222 233 227 228 224 227 232 219 222 226 230 226 214 199 192 194 195 194 190 188
345 332 296 291 309 308 230 258 230 176 224 211 221 213 239 291 203 218 239 265 273 261 235 185 238 239 224 225 226 232 238 226 222 228 235 237 225 206 193 190 189 190 189 189
321 309 300 320 318 288 267 291 316 239 263 214 204 245 260 279 235 232 245 223 265 256 231 210 239 267 337 220 216 219 220 215 214 218 232 231 223 206 196 190 188 186 186 186
326 300 288 297 282 299 197 238 213 247 226 228 255 293 287 266 237 247 254 239 228 305 229 241 209 324 1 353 273 243 240 233 230 230 229 213 208 200 195 187 182 179 179 181
303 322 292 219 232 239 222 205 217 271 268 293 300 289 246 220 232 222 236 244 268 252 242 207 137 335 328 334 327 303 251 218 226 222 217 210 207 196 187 181 176 176 176 171
270 240 242 238 240 265 271 281 291 286 296 297 298 273 230 210 236 227 241 243 219 208 319 323 321 328 320 329 326 309 246 222 220 225 215 204 193 178 171 171 168 168 164 161
243 237 254 266 300 287 281 286 285 304 305 313 271 257 255 234 242 275 235 255 57 3 274 305 315 319 319 329 324 303 235 223 214 207 195 186 172 168 164 160 162 162 162 154
245 248 249 261 275 276 279 288 290 301 308 275 265 257 252 293 247 275 331 7 313 305 308 307 312 319 306 310 306 280 202 191 187 178 167 161 161 160 160 158 157 156 150 145
Wind_Speed_850mb
62 63 65 68 71 67 50 14 6 14 11 3 4 3 6 10 9 5 6 5 5 3 2 5 4 3 4 1 13 8 3 8 1 3 4 5 5 6 8 9 5 4 5 11
61 60 60 60 62 65 57 21 7 11 7 5 5 11 8 6 12 8 7 3 1 2 5 4 1 3 8 8 5 8 9 6 6 14 13 10 12 6 9 9 6 6 9 10
60 58 56 55 52 52 43 15 7 10 14 13 5 9 8 13 17 4 12 5 4 6 9 9 2 1 5 5 10 14 10 6 12 11 12 7 3 5 6 8 6 7 11 10
55 55 53 50 46 42 31 18 4 6 6 8 7 4 8 8 13 11 17 4 10 2 8 1 1 3 3 7 4 7 8 7 8 9 7 5 6 9 8 11 10 12 9 14
50 50 50 48 43 36 18 12 10 11 4 11 6 5 3 7 11 4 12 9 16 5 8 13 17 8 2 5 6 6 5 5 7 4 3 4 8 14 15 12 7 5 7 8
46 45 46 47 40 34 14 15 11 8 7 8 2 3 4 3 11 8 3 13 8 5 10 21 8 8 4 4 8 6 6 11 7 9 6 9 8 11 9 8 7 13 10 10
44 43 40 39 39 32 21 17 12 6 7 2 5 1 6 7 7 8 25 29 4 7 37 8 5 2 7 7 13 11 13 11 6 9 4 6 15 12 7 11 7 6 14 12
42 41 39 35 32 28 19 12 7 5 6 6 15 6 6 14 19 10 13 22 11 36 15 6 7 9 11 5 6 2 7 10 6 8 10 8 4 8 13 10 4 0 15 14
38 40 37 34 30 27 16 10 8 3 3 8 10 6 6 5 5 12 11 16 26 8 6 6 12 11 11 7 5 10 11 10 8 6 9 13 17 11 24 17 1 19 19 27
37 39 39 36 30 25 21 9 12 8 8 16 16 9 6 3 1 3 11 20 17 10 4 6 9 11 11 10 12 8 3 5 12 6 9 13 13 11 24 10 16 54 56 51
35 36 37 36 35 28 20 12 14 12 12 39 39 27 13 9 8 2 17 18 5 7 1 6 8 9 13 8 11 14 13 10 7 5 4 11 21 14 14 16 17 69 54 55
34 34 34 33 34 36 28 10 19 23 22 26 34 36 34 31 37 21 10 5 5 7 2 1 2 5 1 7 10 3 3 14 9 16 12 7 11 12 32 30 53 62 53 45
32 32 32 31 33 33 36 34 31 30 20 38 33 23 16 22 47 54 33 26 14 11 3 5 4 8 7 7 10 7 5 10 7 5 6 8 9 17 32 38 57 63 54 49
33 33 33 33 32 32 36 42 33 21 11 9 19 19 22 21 21 24 45 65 33 20 16 6 5 5 9 6 5 7 9 14 12 6 11 7 5 18 35 41 55 52 48 48
33 34 34 33 37 36 36 29 13 7 8 8 37 69 25 15 40 47 44 45 54 56 12 7 8 10 3 5 1 6 10 11 9 10 17 9 8 27 32 46 53 53 54 52
36 36 36 36 38 39 34 4 14 17 25 12 9 30 46 34 19 30 52 54 69 46 18 16 23 19 18 8 9 24 57 56 31 15 23 15 19 20 38 50 51 51 48 42
37 37 38 37 37 40 23 10 18 25 21 8 12 16 15 35 26 15 20 32 44 41 24 29 26 24 35 7 24 8 33 59 70 60 34 25 36 38 55 54 48 48 42 34
39 40 40 39 36 28 6 8 21 20 10 8 5 8 23 31 16 16 17 17 18 20 22 13 25 32 14 17 19 59 60 44 30 29 31 29 32 48 56 46 50 49 47 44
38 39 41 22 2 2 4 32 29 17 15 6 7 5 7 31 24 19 21 14 6 18 9 11 19 14 19 14 27 47 65 77 80 69 45 33 29 49 57 56 61 58 54 45
37 33 10 4 3 16 29 9 3 4 10 11 8 9 7 19 16 12 24 16 7 7 11 21 17 28 56 46 41 57 74 57 61 67 54 55 48 60 67 68 66 59 51 41
21 14 9 19 37 13 5 5 7 8 7 11 13 19 6 13 6 7 12 7 7 7 10 11 8 18 25 67 77 55 59 69 69 62 63 65 65 71 74 71 61 52 43 35
24 24 26 18 6 3 4 4 7 4 5 6 8 12 14 14 15 14 12 9 7 13 3 7 7 5 12 52 74 80 65 51 48 40 49 53 68 70 71 72 64 51 38 31
18 7 6 6 5 4 7 6 6 5 7 9 9 10 11 13 18 14 7 13 13 12 5 8 5 7 29 25 21 48 43 69 68 58 35 52 55 66 71 71 56 45 37 31
5 4 8 6 8 9 9 8 6 10 15 32 43 21 11 19 11 9 12 11 5 8 8 10 4 25 39 39 32 30 35 48 70 61 49 38 55 70 72 60 52 45 38 33
6 5 8 10 23 20 23 27 30 46 48 49 28 22 22 10 10 9 10 9 12 9 6 6 28 43 37 42 37 33 29 43 56 68 61 54 64 77 66 52 45 39 37 29
8 12 10 21 19 25 23 30 35 42 33 31 17 9 8 10 6 9 12 7 5 5 6 37 52 43 39 40 45 40 31 41 57 68 69 71 84 75 63 55 46 38 29 36
9 15 27 35 34 40 45 44 46 37 26 4 10 8 8 7 6 7 13 6 9 31 51 53 45 39 36 23 27 18 36 53 63 75 89 87 73 64 61 57 47 36 39 52
Wind_Direction_850mb
341 344 348 351 353 357 7 9 66 55 165 56 46 171 206 312 304 346 275 112 128 175 116 81 159 141 243 95 145 144 182 130 196 212 358 291 4 109 107 112 223 83 130 281
339 340 346 350 354 358 360 354 0 3 145 107 334 317 308 276 334 329 351 296 336 114 66 89 40 38 13 3 101 150 184 34 18 353 0 355 48 16 110 104 85 185 128 264
339 338 342 348 352 356 357 357 13 26 72 55 87 9 344 324 338 281 357 297 114 96 41 33 224 342 355 33 93 110 98 109 148 176 203 182 30 9 91 106 106 180 221 282
340 342 341 346 351 355 2 12 45 28 336 355 13 357 352 330 347 353 1 27 29 179 139 58 291 292 329 59 89 69 104 150 176 232 222 189 216 226 193 199 194 160 260 208
344 345 343 344 350 358 10 22 10 353 304 311 326 354 11 4 321 292 336 39 320 356 165 182 205 169 223 196 10 76 20 187 166 270 178 218 261 253 236 226 129 263 167 245
342 344 348 349 352 4 23 20 360 341 332 342 31 224 324 330 356 280 294 340 330 32 4 311 284 197 180 188 174 157 131 134 107 248 353 5 334 246 219 197 173 155 172 208
341 344 345 351 356 360 5 357 355 349 283 296 233 244 316 286 316 269 301 325 310 331 332 277 256 274 307 248 249 176 149 133 134 200 57 249 244 286 204 116 20 147 113 123
346 347 345 346 349 352 347 343 351 334 283 274 294 269 260 308 303 251 260 288 301 314 316 54 24 338 357 271 19 243 156 125 154 158 185 275 22 200 166 146 352 37 141 150
352 354 353 351 351 349 344 301 317 277 329 255 270 316 299 283 289 320 278 304 318 306 98 112 173 212 218 274 331 61 78 79 125 135 166 202 231 208 161 119 301 218 197 171
352 354 354 352 352 355 353 321 306 283 269 270 273 230 256 271 83 256 300 339 333 1 110 160 170 222 192 188 185 194 37 40 173 175 223 282 246 164 143 110 233 180 188 183
348 352 355 358 354 354 356 331 303 300 262 269 267 258 252 260 270 130 312 334 322 345 23 162 212 190 217 156 196 176 174 164 199 116 138 265 165 118 159 204 163 178 192 202
343 344 346 349 351 351 357 342 317 305 272 265 277 274 257 268 274 252 228 262 315 255 67 324 293 264 202 178 214 47 211 187 187 175 213 235 238 260 223 177 166 175 179 185
342 343 341 340 340 341 341 336 329 320 295 294 277 282 278 271 252 253 245 260 254 241 261 211 236 258 137 190 237 188 238 166 160 81 265 257 286 228 188 178 176 176 181 177
341 342 341 339 335 333 332 328 324 305 278 288 280 272 274 273 262 249 242 244 241 236 285 280 223 214 196 231 235 184 203 143 157 249 273 277 215 182 172 172 167 171 179 181
332 334 337 335 330 332 336 329 352 341 257 291 301 300 308 298 266 248 238 242 243 246 228 193 221 233 231 231 111 249 190 181 153 214 214 160 209 194 189 179 178 178 173 177
329 327 325 325 323 325 342 313 60 28 359 337 307 305 295 320 332 268 251 239 240 226 209 205 225 230 207 211 228 229 238 251 259 225 190 262 278 255 207 190 178 177 181 183
322 320 319 317 309 310 312 283 305 317 303 269 293 286 306 341 336 333 293 244 231 226 227 230 243 214 217 209 238 260 225 231 239 240 250 252 245 220 201 191 182 180 181 188
316 316 317 310 306 302 321 131 327 321 292 232 268 280 313 351 349 329 316 279 229 232 230 213 208 223 223 249 217 227 234 249 238 227 223 232 239 213 192 189 183 183 184 180
316 320 317 316 26 10 192 313 299 263 234 260 230 286 301 345 352 326 310 297 296 248 204 210 192 200 218 208 189 216 225 223 237 242 238 249 230 198 190 191 187 188 182 184
327 327 328 292 332 310 311 293 285 218 200 227 231 277 286 331 346 309 335 288 240 270 239 224 222 233 227 228 224 227 232 219 222 226 230 226 214 199 192 194 195 194 190 188
345 332 296 291 309 308 230 258 230 176 224 211 221 213 239 291 203 218 239 265 273 261 235 185 238 239 224 225 226 232 238 226 222 228 235 237 225 206 193 190 189 190 189 189
321 309 300 320 318 288 267 291 316 239 263 214 204 245 260 279 235 232 245 223 265 256 231 210 239 267 337 220 216 219 220 215 214 218 232 231 223 206 196 190 188 186 186 186
326 300 288 297 282 299 197 238 213 247 226 228 255 293 287 266 237 247 254 239 228 305 229 241 209 324 1 353 273 243 240 233 230 230 229 213 208 200 195 187 182 179 179 181
303 322 292 219 232 239 222 205 217 271 268 293 300 289 246 220 232 222 236 244 268 252 242 207 137 335 328 334 327 303 251 218 226 222 217 210 207 196 187 181 176 176 176 171
270 240 242 238 240 265 271 281 291 286 296 297 298 273 230 210 236 227 241 243 219 208 319 323 321 328 320 329 326 309 246 222 220 225 215 204 193 178 171 171 168 168 164 161
243 237 254 266 300 287 281 286 285 304 305 313 271 257 255 234 242 275 235 255 57 3 274 305 315 319 319 329 324 303 235 223 214 207 195 186 172 168 164 160 162 162 162 154
245 248 249 261 275 276 279 288 290 301 308 275 265 257 252 293 247 275 331 7 313 305 308 307 312 319 306 310 306 280 202 191 187 178 167 161 161 160 160 158 157 156 150 145